OK5TVR-6 Weather Reports


Display with metric or nautical units.
time (UTC)temp
F
wind
direction
speed
MPH
gust
MPH
rain 1hr
in
rain 24hr
in
rain mn
in
humidity
%
barometer
mb
20260508033505 51 0 0.0 0.0 0.01 0.00 0.00 1009.6
20260508025832 51 0 4.0 0.0 0.01 0.00 0.00 1009.6
20260508024015 51 270 16.0 0.0 0.00 0.00 0.00 1009.6
20260508022159 51 0 0.0 0.0 0.00 0.00 0.00 1009.6
20260508020342 51 0 5.0 0.0 0.00 0.00 0.00 1009.5
20260508014526 51 0 0.0 0.0 0.00 0.00 0.00 1009.6
20260508012709 51 270 0.0 0.0 0.00 0.00 0.00 1009.5
20260508010853 51 0 0.0 0.0 0.02 0.00 0.00 1009.5
20260508005036 51 315 0.0 0.0 0.01 0.00 0.00 1009.6
20260508003219 51 0 5.0 0.0 0.01 0.00 0.00 1009.5
20260508001403 51 222 22.0 0.0 0.00 0.00 0.00 1009.6
20260507235546 51 0 18.0 0.0 0.00 0.00 0.00 1009.7
20260507233730 52 0 0.0 0.0 0.00 0.00 0.00 1009.8
20260507231913 52 0 18.0 0.0 0.00 0.00 0.00 1009.8
20260507230057 52 0 0.0 0.0 0.00 0.00 0.00 1009.7
20260507224240 52 0 13.0 0.0 0.00 0.00 0.00 1009.8
20260507222424 52 0 0.0 0.0 0.00 0.00 0.00 1009.8
20260507220607 52 0 0.0 0.0 0.00 0.00 0.00 1009.7
20260507214752 51 270 13.0 0.0 0.00 0.00 0.00 1009.6
20260507212935 51 315 20.0 0.0 0.00 0.00 0.00 1009.4
20260507211119 51 90 51.0 0.0 0.00 0.00 0.00 1009.4
20260507205306 51 315 18.0 0.0 0.00 0.00 0.00 1009.4
20260507203446 51 0 12.0 0.0 0.00 0.00 0.00 1009.1
20260507201630 52 270 33.0 0.0 0.00 0.00 0.00 1008.9
20260507195815 52 270 13.0 0.0 0.00 0.00 0.00 1008.9
20260507194006 53 270 0.0 0.0 0.00 0.00 0.00 1004.0
20260507192200 53 222 6.0 0.0 0.00 0.00 0.00 1004.0
20260507190357 53 222 40.0 0.0 0.01 0.00 0.00 1003.8
20260507184554 54 0 20.0 0.0 0.01 0.00 0.00 1003.7
20260507182750 54 270 41.0 0.0 0.00 0.00 0.00 1003.5
20260507180947 54 0 49.0 0.0 0.00 0.00 0.00 1003.3
20260507175143 54 315 26.0 0.0 0.00 0.00 0.00 1003.4
20260507173340 55 0 32.0 0.0 0.00 0.00 0.00 1003.4
20260507171537 55 0 27.0 0.0 0.00 0.00 0.00 1003.0
20260507165733 55 270 10.0 0.0 0.00 0.00 0.00 1003.1
20260507163929 56 315 24.0 0.0 0.00 0.00 0.00 1002.8
20260507162125 56 0 41.0 0.0 0.00 0.00 0.00 1002.9
20260507160321 56 222 42.0 0.0 0.00 0.00 0.00 1002.9
20260507154515 59 0 17.0 0.0 0.00 0.00 0.00 1002.9
20260507152707 61 222 18.0 0.0 0.00 0.00 0.00 1002.9
20260507150903 55 180 65.0 0.0 0.00 0.00 0.00 1002.5
20260507145059 57 270 56.0 0.0 0.00 0.00 0.00 1002.5
20260507143250 64 270 83.0 0.0 0.00 0.00 0.00 1002.6
20260507141436 62 315 57.0 0.0 0.00 0.00 0.00 1002.7
20260507135621 63 315 62.0 0.0 0.00 0.00 0.00 1006.3
20260507133804 60 0 138.0 0.0 0.00 0.00 0.00 1006.3
20260507131954 62 0 53.0 0.0 0.00 0.00 0.00 1002.4
20260507130140 65 222 42.0 0.0 0.00 0.00 0.00 1002.3
20260507124326 63 315 65.0 0.0 0.00 0.00 0.00 1002.1
20260507122509 65 0 101.0 0.0 0.00 0.00 0.00 1005.8
20260507120652 69 0 55.0 0.0 0.00 0.00 0.00 1005.6
20260507114836 67 180 111.0 0.0 0.00 0.00 0.00 1005.6
20260507113019 66 270 61.0 0.0 0.00 0.00 0.00 1005.7
20260507111203 64 0 97.0 0.0 0.00 0.00 0.00 1005.6
20260507105346 65 270 41.0 0.0 0.00 0.00 0.00 1005.6
20260507103530 66 315 20.0 0.0 0.00 0.00 0.00 1005.3
20260507101713 68 270 94.0 0.0 0.00 0.00 0.00 1005.4
20260507095858 63 270 32.0 0.0 0.00 0.00 0.00 1001.5
20260507094042 63 222 12.0 0.0 0.00 0.00 0.00 1067.6
20260507092227 62 222 27.0 0.0 0.00 0.00 0.00 1071.6
20260507090412 61 135 56.0 0.0 0.00 0.00 0.00 1001.5
20260507084556 61 222 64.0 0.0 0.00 0.00 0.00 1001.3
20260507082739 60 222 94.0 0.0 0.00 0.00 0.00 1004.9
20260507080923 61 0 57.0 0.0 0.00 0.00 0.00 1004.7
20260507075106 60 0 12.0 0.0 0.00 0.00 0.00 1004.5
20260507073254 61 270 44.0 0.0 0.00 0.00 0.00 1000.6
20260507071449 60 222 80.0 0.0 0.00 0.00 0.00 1000.3
20260507065644 58 180 64.0 0.0 0.00 0.00 0.00 1000.1
20260507063839 58 0 70.0 0.0 0.00 0.00 0.00 999.9
20260507062036 57 0 54.0 0.0 0.00 0.00 0.00 999.8
20260507060231 56 315 40.0 0.0 0.00 0.00 0.00 999.6
20260507054427 56 270 70.0 0.0 0.00 0.00 0.00 999.3
20260507052624 56 0 32.0 0.0 0.00 0.00 0.00 999.0
20260507050811 56 222 39.0 0.0 0.00 0.00 0.00 1082.8
20260507045007 55 270 56.0 0.0 0.00 0.00 0.00 998.7
20260507043156 55 0 19.0 0.0 0.00 0.00 0.00 998.4
20260507041353 55 0 39.0 0.0 0.00 0.00 0.00 998.3
20260507035549 54 315 26.0 0.0 0.00 0.00 0.00 998.2